Time,TemperatureF,DewpointF,PressureIn,WindDirection,WindDirectionDegrees,WindSpeedMPH,WindSpeedGustMPH,Humidity,HourlyPrecipIn,Conditions,Clouds,dailyrainin,SoftwareType,DateUTC
2013-06-20 09:01:00,55.0,54.0,25.86,SSE,159,0.0,1.0,98,0.00,,,0.00,,2013-06-20 16:01:00,
2013-06-20 09:11:00,55.0,54.0,25.86,SSE,159,0.0,1.0,98,0.00,,,0.00,,2013-06-20 16:11:00,
2013-06-20 09:22:00,57.0,55.0,25.86,NW,307,2.0,4.0,92,0.00,,,0.00,,2013-06-20 16:22:00,
2013-06-20 09:32:00,57.0,55.0,25.86,NW,307,2.0,4.0,92,0.00,,,0.00,,2013-06-20 16:32:00,
2013-06-20 09:42:00,57.0,53.0,25.85,WNW,295,0.0,1.0,85,0.00,,,0.00,,2013-06-20 16:42:00,
2013-06-20 09:52:00,58.0,53.0,25.85,WNW,295,0.0,0.0,83,0.00,,,0.00,,2013-06-20 16:52:00,
2013-06-20 10:01:00,58.0,53.0,25.85,SSW,195,0.0,2.0,82,0.00,,,0.00,,2013-06-20 17:01:00,
2013-06-20 10:11:00,58.0,53.0,25.85,SSW,195,0.0,2.0,82,0.00,,,0.00,,2013-06-20 17:11:00,
2013-06-20 10:21:00,58.0,53.0,25.85,SSW,195,0.0,2.0,82,0.00,,,0.00,,2013-06-20 17:21:00,
2013-06-20 10:32:00,57.0,52.0,25.86,WSW,252,1.0,6.0,84,0.00,,,0.00,,2013-06-20 17:32:00,
2013-06-20 10:42:00,57.0,52.0,25.86,SSW,207,1.0,5.0,83,0.00,,,0.00,,2013-06-20 17:42:00,
2013-06-20 10:53:00,57.0,52.0,25.86,SSW,207,1.0,5.0,83,0.00,,,0.00,,2013-06-20 17:53:00,
2013-06-20 11:01:00,59.0,52.0,25.86,WSW,242,0.0,5.0,79,0.00,,,0.00,,2013-06-20 18:01:00,
2013-06-20 11:11:00,59.0,52.0,25.86,WSW,242,0.0,5.0,79,0.00,,,0.00,,2013-06-20 18:11:00,
2013-06-20 11:22:00,59.0,52.0,25.86,WSW,242,0.0,5.0,79,0.00,,,0.00,,2013-06-20 18:22:00,
2013-06-20 11:33:00,59.0,52.0,25.86,WSW,242,0.0,5.0,79,0.00,,,0.00,,2013-06-20 18:33:00,
2013-06-20 11:42:00,59.0,53.0,25.90,NNW,328,2.0,4.0,81,0.00,,,0.00,,2013-06-20 18:42:00,
2013-06-20 11:53:00,59.0,52.0,25.93,SW,233,4.0,7.0,79,0.00,,,0.00,,2013-06-20 18:53:00,
2013-06-20 12:01:00,59.0,52.0,25.93,SW,233,4.0,7.0,79,0.00,,,0.00,,2013-06-20 19:01:00,
2013-06-20 12:11:00,59.0,52.0,25.93,SW,233,4.0,7.0,79,0.00,,,0.00,,2013-06-20 19:11:00,
2013-06-20 12:22:00,60.0,53.0,25.87,SW,225,4.0,7.0,78,0.00,,,0.00,,2013-06-20 19:22:00,
2013-06-20 12:33:00,60.0,54.0,25.85,WSW,252,3.0,11.0,81,0.00,,,0.00,,2013-06-20 19:33:00,
2013-06-20 12:43:00,60.0,53.0,25.85,WNW,286,5.0,11.0,79,0.00,,,0.00,,2013-06-20 19:43:00,
2013-06-20 12:52:00,60.0,53.0,25.85,WNW,286,5.0,11.0,79,0.00,,,0.00,,2013-06-20 19:52:00,
2013-06-20 13:01:00,60.0,53.0,25.85,South,182,3.0,13.0,79,0.00,,,0.00,,2013-06-20 20:01:00,
2013-06-20 13:11:00,61.0,54.0,25.85,WNW,302,3.0,9.0,79,0.00,,,0.00,,2013-06-20 20:11:00,
2013-06-20 13:22:00,61.0,54.0,25.85,WNW,302,3.0,9.0,79,0.00,,,0.00,,2013-06-20 20:22:00,
2013-06-20 13:33:00,61.0,54.0,25.85,WNW,302,3.0,9.0,79,0.00,,,0.00,,2013-06-20 20:33:00,
2013-06-20 13:42:00,61.0,54.0,25.86,WNW,289,4.0,14.0,77,0.00,,,0.00,,2013-06-20 20:42:00,
2013-06-20 13:52:00,61.0,53.0,25.86,West,267,2.0,10.0,76,0.00,,,0.00,,2013-06-20 20:52:00,
2013-06-20 14:01:00,62.0,54.0,25.85,NNW,336,4.0,11.0,76,0.00,,,0.00,,2013-06-20 21:01:00,
2013-06-20 15:12:00,61.0,53.0,25.85,NW,326,4.0,12.0,75,0.00,,,0.00,,2013-06-20 22:12:00,